Theta_e
311 312 313 313 313 313 313 313 313 313 313 313 314 314 314 316 316 308 302 311 314 323 320 306 306 309 311 307 308 304 294 292 295 296 298 303 302 304 317 315 319 321 317 319 326
313 313 312 313 313 314 314 314 313 313 313 313 313 314 314 316 306 300 311 317 318 321 307 304 301 307 301 304 305 301 294 296 300 301 300 303 303 302 306 311 314 315 319 321 324
315 316 315 314 313 314 314 314 314 314 313 313 313 314 314 312 299 299 314 315 317 316 308 307 306 304 299 303 302 300 298 302 301 304 305 304 302 305 304 302 313 315 316 318 322
317 316 316 316 315 314 314 314 314 314 314 313 313 313 314 304 284 301 314 315 315 308 308 305 302 295 297 296 304 298 302 302 304 306 305 303 304 302 304 305 314 319 318 318 320
316 315 315 315 315 315 315 314 314 314 314 313 313 313 305 290 292 301 312 308 304 302 300 300 296 295 290 295 298 297 300 304 308 308 306 306 303 302 303 309 313 319 319 316 320
316 316 315 315 314 315 315 315 314 314 314 313 312 312 298 284 301 301 302 302 300 300 298 298 298 299 295 295 294 298 300 300 302 305 308 304 305 303 307 311 316 318 317 315 317
314 315 315 315 314 314 315 315 314 314 313 312 312 306 297 291 301 300 301 299 299 300 297 299 300 298 298 294 298 298 293 295 297 300 303 306 301 302 306 316 315 316 317 315 315
313 314 314 314 314 314 314 314 314 313 312 313 312 301 289 302 301 300 301 299 300 301 301 302 302 298 297 299 295 292 291 285 293 297 302 302 293 302 309 315 313 314 315 313 312
312 313 314 314 314 314 313 313 313 312 312 312 299 295 288 303 295 299 299 297 298 299 302 304 299 295 295 288 283 287 282 283 286 297 297 299 293 300 307 311 310 315 315 311 312
313 313 313 314 313 313 312 311 310 307 304 304 301 286 290 289 295 298 300 299 296 297 295 294 292 287 287 285 271 276 279 283 284 292 296 294 294 297 301 304 307 310 315 312 312
313 313 313 313 312 310 305 293 288 286 291 286 288 288 290 294 299 297 299 296 295 292 284 289 282 279 279 285 286 286 284 283 286 291 291 290 293 295 299 301 300 303 309 313 311
313 314 313 312 309 308 299 291 291 291 283 292 293 292 294 296 291 293 299 290 288 282 285 282 280 285 286 286 285 284 281 281 285 289 290 289 288 292 296 298 300 301 299 313 312
314 314 314 310 307 301 296 295 301 296 283 288 291 289 293 295 290 289 294 290 285 282 282 280 282 287 286 284 282 282 281 281 282 286 290 289 285 288 292 297 299 302 302 303 311
314 314 312 308 299 297 294 300 300 292 274 280 284 290 292 292 285 294 295 290 287 283 283 282 286 285 283 281 282 278 285 285 284 282 277 288 277 284 290 292 296 299 300 299 310
314 312 310 306 295 294 297 299 296 286 263 280 284 294 290 286 287 287 296 291 284 283 283 280 282 282 281 282 285 281 286 285 285 282 280 282 279 280 290 290 294 297 300 301 307
313 311 308 300 295 296 298 294 287 271 262 277 283 283 283 285 285 289 288 290 289 285 284 284 287 285 284 285 285 286 285 284 285 283 274 281 280 278 284 289 292 297 299 301 304
311 308 302 301 291 298 295 286 271 266 276 272 278 282 281 281 283 284 282 280 278 275 272 281 281 284 286 282 285 284 280 272 271 274 273 281 279 281 287 292 294 296 297 301 302
307 303 299 298 296 296 288 276 264 264 267 280 281 281 278 280 280 280 280 277 282 281 277 274 271 280 286 283 280 282 282 274 269 270 273 280 277 281 290 294 296 299 299 300 301
304 294 293 294 296 292 281 265 267 269 279 275 278 273 274 279 277 278 276 275 282 285 274 273 275 283 284 285 284 280 279 285 278 271 274 272 281 288 291 294 296 297 298 299 300
293 290 290 294 294 286 275 272 271 281 282 277 270 275 267 272 270 269 274 279 281 287 285 280 274 280 282 285 287 283 287 278 280 265 265 275 278 280 287 289 296 296 296 296 297
291 284 291 294 290 280 269 267 276 283 283 279 269 273 276 273 273 270 269 278 285 282 285 282 279 277 282 278 275 279 278 281 280 280 273 273 277 286 285 286 287 297 296 294 293
287 277 291 290 277 272 269 273 283 282 283 282 278 276 274 277 273 272 268 275 284 283 277 283 280 272 276 282 284 284 279 281 276 275 278 279 278 290 287 286 288 295 296 295 294
282 284 290 288 270 268 276 277 281 281 281 281 280 280 279 277 267 273 269 281 282 278 277 283 274 270 270 276 284 282 283 284 282 282 277 275 279 290 291 290 293 292 292 292 292
284 278 280 281 279 275 272 269 271 282 281 282 281 281 277 275 278 268 270 281 283 276 287 285 276 275 272 276 279 277 280 282 281 277 278 279 281 287 288 286 291 289 290 291 291
283 279 282 274 277 277 276 274 269 273 281 282 280 279 278 271 275 270 272 279 282 285 281 276 268 274 276 277 277 278 278 280 279 280 278 281 282 286 288 287 290 291 290 290 290
283 281 281 273 279 278 279 276 275 275 279 276 278 279 280 271 276 271 277 278 278 280 278 279 267 271 269 274 278 276 279 280 280 280 281 282 282 290 290 290 290 291 291 289 290
286 287 283 282 279 277 277 278 278 279 281 281 280 279 278 280 282 282 281 281 281 279 279 274 276 268 263 273 271 267 275 278 280 281 281 279 284 287 288 291 290 290 292 291 291
Wind_Speed
1 2 2 3 3 5 6 7 9 11 12 14 15 17 18 19 15 6 6 5 8 13 12 8 5 6 3 3 3 4 2 7 8 7 8 4 4 3 1 3 3 3 4 4 18
2 2 4 4 5 4 5 7 8 10 11 13 15 17 18 17 3 6 5 11 13 12 6 7 7 8 4 3 3 6 5 8 6 6 6 9 7 3 1 3 3 2 3 13 21
6 6 6 7 7 7 8 9 10 11 13 13 15 17 20 5 2 3 10 14 15 11 2 2 3 3 2 2 3 5 11 6 4 8 8 15 4 4 5 7 8 9 9 16 22
7 7 8 8 9 9 9 10 11 13 14 16 18 20 19 1 1 2 12 14 13 9 3 4 4 4 3 3 4 7 5 4 6 5 3 8 0 5 9 9 7 10 18 22 22
5 5 6 7 9 9 9 9 10 12 14 15 16 18 6 4 0 4 9 10 7 7 4 4 3 2 3 5 8 5 6 9 11 12 5 9 8 9 11 9 9 7 17 22 24
5 6 7 7 8 9 9 10 10 11 12 13 13 13 4 3 3 6 8 8 5 5 6 3 2 3 5 4 3 7 11 13 11 12 12 9 17 6 3 6 7 11 19 23 23
5 5 5 7 8 8 9 10 10 11 12 12 10 2 2 3 3 6 7 5 3 2 3 4 3 2 4 5 3 6 13 14 12 9 11 5 24 34 7 9 10 12 16 21 20
5 6 6 7 7 8 9 10 10 12 12 10 6 2 3 4 4 6 7 6 4 3 3 7 1 3 3 5 6 5 5 6 3 9 8 9 40 17 6 10 11 13 11 15 11
7 6 5 6 7 8 9 11 11 12 9 4 1 1 4 7 6 8 2 4 7 5 5 4 2 3 3 2 5 4 10 10 10 9 7 17 32 11 5 8 9 14 14 14 12
7 5 5 5 6 7 9 11 5 2 3 1 1 1 3 5 5 7 4 4 3 5 6 5 3 1 2 1 5 5 9 9 11 3 7 17 28 10 6 4 8 12 16 18 18
5 4 4 4 4 7 5 3 6 4 7 1 3 2 3 7 4 4 5 5 4 4 3 4 2 9 4 9 11 12 18 24 17 15 13 18 21 13 13 16 11 6 13 19 21
5 5 4 2 3 4 4 5 2 2 2 1 4 4 5 2 4 6 5 5 4 3 4 4 9 10 5 7 10 13 17 19 15 15 14 18 25 18 16 16 15 14 8 21 20
7 7 6 3 2 6 5 3 2 1 3 4 3 3 6 1 3 5 4 1 1 1 2 5 10 4 5 7 11 14 13 16 18 15 19 19 26 19 17 21 15 16 11 15 25
7 8 6 3 5 1 3 1 3 3 6 4 2 2 4 3 3 4 3 1 3 3 4 8 4 2 6 10 7 15 12 18 17 10 14 10 17 7 6 19 21 19 14 4 19
9 8 6 2 5 3 2 1 3 5 5 4 6 3 9 1 5 2 3 1 6 7 2 9 7 8 13 13 7 11 10 14 17 14 11 16 9 6 5 10 20 22 20 7 12
10 9 9 4 3 1 1 4 5 10 6 4 4 7 7 4 3 7 6 4 4 5 5 14 4 6 10 13 10 11 12 14 16 9 11 24 15 8 10 17 15 16 15 11 6
10 9 5 2 3 1 3 5 8 7 4 7 3 5 3 4 5 4 5 7 4 8 6 7 5 5 5 5 3 1 5 6 4 5 8 4 9 17 12 17 19 21 17 16 12
12 7 6 3 1 3 4 8 5 4 6 2 2 4 2 7 3 6 5 5 5 3 4 6 10 4 1 3 5 9 4 6 7 5 10 9 6 8 9 8 13 16 19 16 15
10 2 3 3 3 3 7 5 9 8 4 2 3 4 5 3 1 7 3 2 1 3 2 5 8 7 13 15 4 4 4 4 9 6 7 4 7 9 7 5 5 11 13 17 16
4 3 1 4 2 5 7 5 3 3 5 5 4 3 2 4 5 5 3 3 3 2 3 3 15 6 6 5 6 7 3 6 5 4 6 5 6 5 10 10 6 7 11 9 9
4 4 3 4 3 6 4 7 5 4 3 4 5 2 4 2 2 2 5 5 2 3 4 7 6 9 9 3 4 4 3 3 3 7 3 7 4 2 9 12 17 10 13 13 13
4 2 2 3 5 2 4 6 4 3 2 2 4 5 5 3 2 3 5 6 3 1 6 2 5 6 14 12 5 1 4 2 3 8 4 3 7 7 10 12 15 3 5 10 11
5 2 2 5 4 3 2 3 2 3 4 5 5 5 4 4 1 5 4 6 4 1 3 4 4 7 11 6 3 4 2 5 7 10 5 2 6 13 17 14 6 3 7 9 10
4 3 4 4 1 7 6 4 3 3 2 3 3 4 3 3 6 5 4 5 1 6 8 3 4 7 11 12 10 15 14 7 7 8 6 5 10 11 20 15 8 4 7 8 9
2 5 5 5 5 5 5 6 4 4 4 5 3 7 6 3 3 5 4 5 5 4 2 4 5 4 11 18 14 16 19 12 11 13 7 7 13 11 13 12 11 5 7 3 7
7 6 2 2 4 7 6 7 10 3 8 5 6 6 8 7 9 7 6 3 6 2 2 1 6 4 9 5 7 15 14 9 14 13 12 9 13 5 6 3 9 6 2 4 8
2 2 5 6 5 6 6 7 10 7 7 4 10 5 6 16 11 11 8 7 7 4 6 2 3 4 9 6 12 5 4 3 6 5 5 4 4 8 4 8 7 7 3 3 6
Wind_Direction
34 318 343 336 351 354 354 353 351 350 349 347 344 341 339 335 337 23 37 297 320 330 337 321 5 338 314 247 212 128 223 225 216 193 243 196 224 261 222 140 302 172 192 252 141
340 349 321 322 329 331 343 344 347 343 343 344 341 339 338 336 353 41 329 332 339 337 354 4 352 345 342 273 245 182 215 228 193 209 235 255 212 200 262 206 235 311 298 137 152
308 313 314 318 316 325 334 338 338 338 340 342 342 341 340 348 47 360 335 341 345 342 233 317 341 348 320 302 241 234 248 246 231 229 234 264 231 229 220 254 213 209 166 169 164
308 311 311 305 304 311 320 329 332 334 337 341 345 343 334 132 95 322 340 353 353 357 19 345 11 24 313 259 295 279 262 259 254 236 261 271 277 269 227 243 234 226 174 177 179
300 291 298 303 297 291 302 316 322 327 331 338 341 345 7 40 148 339 344 347 350 358 12 342 7 1 305 325 325 275 283 291 298 288 264 286 269 248 249 262 267 200 174 187 193
285 278 278 281 285 281 289 302 311 317 320 328 338 346 26 58 303 350 346 342 350 355 334 341 309 254 268 269 280 316 309 292 289 296 285 285 286 234 117 217 230 181 184 191 197
277 286 279 282 287 285 286 293 303 306 311 319 326 17 10 197 356 323 336 301 285 315 307 287 287 330 320 295 301 276 302 297 268 252 256 350 271 249 190 186 205 204 199 192 196
275 264 271 278 274 279 284 291 299 299 304 307 321 93 238 273 288 337 336 328 341 277 208 283 286 230 212 305 324 318 267 279 19 214 214 145 257 273 199 188 206 201 192 194 191
264 256 255 267 269 276 286 293 290 289 289 290 99 137 312 322 6 316 310 288 317 321 320 273 253 227 296 293 333 227 271 277 298 256 241 211 264 255 212 208 221 218 195 201 188
281 233 247 252 265 286 305 309 290 5 11 121 236 29 355 310 301 306 292 324 328 325 350 36 53 299 311 175 246 273 286 282 275 306 292 244 259 263 273 289 243 228 211 200 196
262 223 233 244 290 316 359 34 21 358 40 91 287 277 271 293 300 316 304 334 358 36 18 338 55 237 232 232 257 281 280 279 278 282 282 271 272 276 268 254 252 245 268 212 201
204 191 202 209 4 42 73 74 100 201 327 287 269 283 267 280 308 311 13 35 24 322 323 6 243 258 239 255 252 259 265 273 283 259 252 260 274 277 274 255 249 241 323 233 199
182 176 169 161 46 42 75 87 136 130 92 309 259 283 282 31 297 282 16 329 283 315 311 212 253 325 284 268 267 259 256 266 264 286 269 268 264 261 257 241 237 225 224 299 193
169 160 148 135 50 136 59 28 79 94 75 302 313 304 330 329 298 242 247 338 324 282 294 257 280 319 293 276 258 274 249 251 260 276 275 201 273 241 237 240 237 231 207 302 241
153 145 122 86 145 69 166 69 84 53 32 279 302 302 332 62 307 346 342 359 236 236 125 262 285 285 278 256 174 256 274 255 254 260 283 251 252 260 172 244 241 230 230 201 222
146 137 119 60 55 100 116 73 47 45 262 349 320 357 8 347 300 317 6 1 272 287 212 251 251 240 238 276 224 253 283 283 269 246 264 268 216 245 226 221 230 223 216 194 176
135 111 81 70 156 176 83 51 37 118 309 302 334 358 332 297 316 29 337 348 16 357 337 304 249 262 211 283 317 152 313 286 276 227 246 307 229 241 250 228 207 195 190 162 170
122 92 43 72 9 100 55 48 86 241 223 354 338 314 311 3 347 323 348 357 43 17 290 326 317 320 23 239 280 292 198 269 299 304 304 296 251 258 266 278 223 193 197 178 176
113 29 63 360 1 74 73 60 203 203 168 129 2 48 322 340 45 357 355 269 299 63 19 314 258 283 282 289 201 279 232 199 277 219 265 236 282 299 224 261 213 184 187 197 195
93 76 24 343 24 65 76 240 209 212 125 86 163 135 228 282 24 43 324 256 299 111 39 272 289 264 297 310 259 205 299 318 269 304 278 254 265 257 318 345 274 182 178 180 163
71 82 269 15 67 51 159 223 231 227 150 150 196 210 219 261 165 300 254 286 174 286 272 260 233 286 327 265 239 326 312 268 285 257 293 317 299 295 287 306 300 209 191 171 160
117 84 303 69 61 106 161 193 221 176 142 194 119 178 187 194 268 264 233 221 146 287 305 271 286 281 273 286 285 240 218 246 278 299 284 248 280 335 319 288 284 272 129 153 151
112 127 336 89 156 227 225 296 255 165 198 185 212 197 191 206 326 226 230 258 209 156 256 341 287 307 328 348 34 318 229 266 274 258 245 303 300 358 321 331 299 191 136 119 123
114 126 338 53 208 135 150 236 250 222 213 197 211 156 119 251 204 260 261 282 5 195 242 278 262 231 276 292 308 287 286 295 303 281 320 271 310 329 334 344 335 42 63 93 127
97 217 165 192 236 157 145 144 161 196 220 195 231 200 174 229 252 231 256 272 266 198 306 141 260 244 266 273 278 269 276 279 268 271 289 322 317 314 323 331 325 26 85 121 121
142 142 72 154 126 119 178 216 183 222 160 237 221 200 194 195 204 216 201 186 252 120 335 227 278 339 290 263 249 294 276 249 261 275 260 267 286 241 225 278 349 7 166 186 146
174 73 109 160 149 121 203 200 202 157 215 205 208 167 208 236 243 250 235 233 238 219 293 254 294 349 267 336 317 0 251 258 280 265 288 289 274 338 304 32 342 306 158 190 156